This is the latest recevied weather packets stored in our database for station/object KK7MLS-13. If no packets are shown the sender has not sent any weather packets the latest 10 day(s).
| Time | Temp. | Humidity | Pressure | Rain* | Wind** | Luminosity | Snow |
|---|---|---|---|---|---|---|---|
| 1788101321 | 11.11° C | 92% | 1021.3 hPa | 0 mm | - | 25 W/m² | - |
| 1788101017 | 11.11° C | 93% | 1021.5 hPa | 0 mm | - | 24 W/m² | - |
| 1788100713 | 11.11° C | 93% | 1021.4 hPa | 0 mm | - | 24 W/m² | - |
| 1788100412 | 10.56° C | 93% | 1021.5 hPa | 0 mm | - | 25 W/m² | - |
| 1788100112 | 10.56° C | 93% | 1021.4 hPa | 0 mm | - | 27 W/m² | - |
| 1788099807 | 10.56° C | 92% | 1021.4 hPa | 0 mm | - | 25 W/m² | - |
| 1788099503 | 10.56° C | 92% | 1021.5 hPa | 0 mm | - | 24 W/m² | - |
| 1788099203 | 10.56° C | 92% | 1021.4 hPa | 0 mm | - | 20 W/m² | - |
| 1788098898 | 10.56° C | 91% | 1021.3 hPa | 0 mm | - | 14 W/m² | - |
| 1788098593 | 10.56° C | 91% | 1021.2 hPa | 0 mm | - | 11 W/m² | - |
| 1788098287 | 10.56° C | 91% | 1021.4 hPa | 0 mm | - | 10 W/m² | - |
| 1788097983 | 10.56° C | 91% | 1021.5 hPa | 0 mm | - | 9 W/m² | - |
| 1788097679 | 11.11° C | 91% | 1021.3 hPa | 0 mm | - | 7 W/m² | - |
| 1788097378 | 11.11° C | 91% | 1021.3 hPa | 0 mm | - | 5 W/m² | - |
| 1788097074 | 11.11° C | 91% | 1021.2 hPa | 0 mm | - | 4 W/m² | - |
| 1788096770 | 11.11° C | 92% | 1021.2 hPa | 0 mm | - | 3 W/m² | - |
| 1788096465 | 11.11° C | 92% | 1021.2 hPa | 0 mm | - | 2 W/m² | - |
| 1788096161 | 11.11° C | 92% | 1021.3 hPa | 0 mm | - | 1 W/m² | - |
| 1788095860 | 11.11° C | 92% | 1021.2 hPa | 0 mm | - | 0 W/m² | - |
| 1788095560 | 10.56° C | 93% | 1021.3 hPa | 0 mm | - | 0 W/m² | - |
| 1788095255 | 10.56° C | 93% | 1021.3 hPa | 0 mm | - | 0 W/m² | - |
| 1788094951 | 10.56° C | 93% | 1021.1 hPa | 0 mm | - | 0 W/m² | - |
| 1788094649 | 10.56° C | 93% | 1021.1 hPa | 0 mm | - | 0 W/m² | - |
| 1788094345 | 10.56° C | 93% | 1021 hPa | 0 mm | - | 0 W/m² | - |
| 1788094042 | 10.56° C | 92% | 1021 hPa | 0 mm | - | 0 W/m² | - |
* Rain latest hour (hover to see other rain measurements)
** Current wind speed in m/s (hover to see current wind gust speed)